Flag for Chad Weather past 2 weeks in Ndjamena, Chad

Now
73 °F

Sunny.


Feels Like: 74 °F
Forecast: 73 / 82 °F
Wind: No wind

Location: Ndjamena

Current Time: Aug 1, 2014 at 7:22:28 AM

Latest Report: Aug 1, 2014 at 6:00 AM


Visibility: 10 mi

Pressure: 29.89 "Hg

Humidity: 78%

Dew point: 66 °F

Location of NdjamenaLocation

Historic Weather in Ndjamena — Graph

°F

Ndjamena temperature yesterday

Maximum temperature yesterday: 82 °F (at 3:00 PM)
Minimum temperature yesterday: 73 °F (at 11:00 PM)
Average temperature yesterday: 77 °F

Past Weeks' High & Low Weather Summary

 TemperatureHumidityPressure
High100 °F (Jul 20, 3:00 PM)100% (Jul 17, 6:00 AM)29.98 "Hg (Jul 17, 6:00 AM)
Low70 °F (Jul 18, 6:00 AM)25% (Aug 1, 3:00 AM)29.74 "Hg (Jul 27, 4:00 PM)
Average84 °F78%29.87 "Hg
* Reported Jul 17 6:00 AM — Aug 1 6:00 AM, Ndjamena, Weather by CustomWeather, © 2014

Note: Actual official high and low records may vary slightly from our data, if they occured in-between our weather recording intervals... More about our weather records

Advertising

Ndjamena weather history for previous 24 hours

 ConditionsComfort  
Time TempWeatherWind HumidityBarometerVisibility
6:00 AM
Aug 1
73 °FSunny.No wind78%29.89 "Hg10 mi
4:00 AM73 °FClear.No wind31%29.89 "Hg10 mi
3:00 AM73 °FClear.5 mph25%29.89 "Hg10 mi
2:00 AM73 °FPassing clouds.5 mph41%29.89 "HgN/A
1:00 AM73 °FPassing clouds.6 mph78%29.92 "HgN/A
12:00 AM73 °FPassing clouds.3 mph89%29.95 "HgN/A
11:00 PM
Jul 31
73 °FPassing clouds.6 mph89%29.95 "HgN/A
10:00 PM75 °FPassing clouds.6 mph83%29.92 "HgN/A
9:00 PM75 °FClear.5 mph89%29.86 "Hg10 mi
8:00 PM75 °FClear.No wind94%29.86 "Hg10 mi
7:00 PM75 °FPassing clouds.1 mph94%29.83 "HgN/A
6:00 PM77 °FPartly sunny.7 mph89%29.83 "HgN/A
4:00 PM79 °FBroken clouds.13 mph89%29.83 "HgN/A
3:00 PM82 °FPartly sunny.7 mph89%29.86 "HgN/A
2:00 PM81 °FPartly sunny.6 mph89%29.86 "HgN/A
1:00 PM77 °FPartly sunny.No wind94%29.89 "Hg5 mi
12:00 PM75 °FLight rain. Partly sunny.9 mph94%29.92 "Hg5 mi
11:00 AM75 °FPassing clouds.3 mph94%29.92 "HgN/A
10:00 AM75 °FScattered clouds.3 mph89%29.92 "HgN/A
9:00 AM75 °FThunderstorms. Scattered clouds.3 mph78%29.92 "Hg5 mi
8:00 AM75 °FThunderstorms. Scattered clouds.5 mph83%29.89 "Hg5 mi
7:00 AM77 °FThunderstorms. Partly sunny.10 mph79%29.89 "Hg2 mi
Weather by CustomWeather, © 2014

See weather overviewHow to use our weather pages